GEESAT 3-05

导读 | 星芒AI

GEESAT 3-05 是一颗地球观测卫星,隶属于GEESAT系列,主要用于环境监测与地理信息采集。该卫星搭载高分辨率光学传感器,能够提供清晰的地表图像,支持农业、城市规划、灾害预警等多个领域的应用。其轨道设计优化了覆盖范围与重访周期,提升了数据获取效率。GEESAT 3-05 的发射进一步增强了国家在遥感技术方面的自主能力,为可持续发展和资源管理提供了重要数据支持。

基本信息
目录编号:
61015
目录名称:
GEESAT 3-05
国际标识:
2024-159E
轨道中心:
EARTH
卫星名称:
GEESAT 3-05
卫星全名:
GEESAT 3-05
卫星状态:
在轨 (已飞行419 天)
发射日期:
2024-09-05 UTC
国别 :
中国 (CN)
星等 :
--
轨道信息
数据来源 国际轨道数据
星历时间: 2025-10-28T21:37:50+0800
17小时前
查看轨道信息
半长轴: 6978.29km
偏心率: 0.000157
轨道倾角: 50.002°
近地点辐角 249.034°
升交点赤经 77.833°
平近点角 111.044°
近地点: 599.059km
远地点: 601.251km
周期: 96.690分钟
每日圈数: 14.892899
详细信息
使用方式:
暂无
2D轨道图
3D轨道图
轨道高度分析图
轨道倾角分析图
轨道综合分析图
查看轨道综合分析图